OBJECT C, 57426

Orbit data source: Space-Track

You're viewing an Uncataloged Satellite

Recently launched and/or uncataloged satellites may have evolving metadata. Metadata may include but not limited to: Owner, Maufacturer, Bus, Motor, and Mission.

OBJECT C, 57426 is a satellite owned by Sixiang Aishu (CN) in SSO that was launched on Sun, 23 Jul 2023 UTC via a CHANG ZHENG 2D launch vehicle from the Taiyaun Space Center, China (TSC). Unknown objects in Earth's orbit typically refer to objects detected orbiting the Earth but have not yet been identified or cataloged. These objects could be anything from previously untracked satellites, spent rocket stages, debris from satellite collisions, or even natural meteoroids temporarily captured by Earth's gravity.

Loading next visibility...
Identifier
57426, 2023-104C
Orbit
SSO
Country
Flag of CNCN / PRC
Related business
Flag of CNBeijing Skysight Technology Co., LTD (CN)
Manufacturer
Yinhe
Mission
Operational Commercial Imaging
Bus & Motor
AS, Unknown motor
Mass
~100 kg wet, ~100 kg dry
Launch date (UTC)
2023-07-23 (3 years ago)
Launch vehicle
CHANG ZHENG 2D
Launch site
Taiyaun Space Center, China (TSC)
Object type
Unknown
Shape & HBR
Box + 2 Pan, 0.8 m
Radar Cross Section
0.363 m², Medium (>0.1 m² and < 1m²)

Expand to show TLE details & history
Last TLE update: 6 hours ago

TLE from 6 hours ago
0 OBJECT C
1 57426U 23104C   26095.47996478  .00017060  00000-0  63168-3 0  9991
2 57426  97.2678 161.1972 0010119 258.1169 101.8936 15.27678062150688
Epoch: 2026-04-05T11:31Z
TLE epoch observation values (Epoch: 2026-04-05T11:31:08.956Z)
Latitude
-0.00001°
Longitude
154.62509°
Altitude
487.298 km
Speed
7.621 km/s
True Right ascension
10h 44m 47s
True Declination
0° 00' 00"
Sunlit
Object was in full shadow at epoch
Visualization orbit readout
Latitude
Unknown
Longitude
Unknown
Altitude
Unknown
Speed
Unknown
Apparent Right ascension
Unknown
Apparent Declination
Unknown
Sunlit
N/A
Visualization observer readout
Local Sidereal Time
23:16:30
Azimuth
Unknown
Elevation
Unknown
Doppler factor
Unknown
Orbital elements
Apogee altitude
486.645 km
Perigee altitude
472.766 km
Semi-major axis
6,857.842 km
Eccentricity
0.00101
Inclination
97.2678°
RAAN
161.1972°
Arg. of periapsis
258.1169°
True anomaly
102.00704°
Mean anomaly
101.8936°
Eccentric anomaly
101.95032°
Mean motion
3.82175 °/min
Orbital period
94.2 mins
BSTAR
0.00063168
Loading maneuver chart data...
Computing Atmospheric mass density...
Loading historical data...
Loading historical data...
Loading historical data...
Loading historical data...
Loading historical data...
Loading historical data...
Loading historical data...

Documentation

Showing up to 5 results
|